This is the latest recevied weather packets stored in our database for station/object JE0GNV-13. If no packets are shown the sender has not sent any weather packets the latest 10 day(s).
| Time | Temp. | Humidity | Pressure | Rain* | Wind** | Luminosity | Snow |
|---|---|---|---|---|---|---|---|
| 1777776602 | 20° C | 52% | 1008.6 hPa | 0 mm | - | - | - |
| 1777776001 | 19.44° C | 54% | 1008.7 hPa | 0 mm | - | - | - |
| 1777775401 | 18.33° C | 53% | 1008.8 hPa | 0 mm | - | - | - |
| 1777774801 | 18.33° C | 53% | 1009 hPa | 0 mm | - | - | - |
| 1777774201 | 17.78° C | 55% | 1009.1 hPa | 0 mm | - | - | - |
| 1777773601 | 17.22° C | 60% | 1009.2 hPa | 0 mm | - | - | - |
| 1777773001 | 16.67° C | 62% | 1009.4 hPa | 0 mm | - | - | - |
| 1777772402 | 16.11° C | 60% | 1009.5 hPa | 0 mm | - | - | - |
| 1777771801 | 16.11° C | 57% | 1009.8 hPa | 0 mm | - | - | - |
| 1777771201 | 16.11° C | 60% | 1010 hPa | 0 mm | - | - | - |
| 1777770601 | 15.56° C | 62% | 1010.1 hPa | 0 mm | - | - | - |
| 1777770001 | 15° C | 64% | 1010.5 hPa | 0 mm | - | - | - |
| 1777769402 | 15° C | 63% | 1010.7 hPa | 0 mm | - | - | - |
| 1777768800 | 14.44° C | 62% | 1010.8 hPa | 0 mm | - | - | - |
| 1777768201 | 14.44° C | 65% | 1010.9 hPa | 0 mm | - | - | - |
| 1777767600 | 13.89° C | 68% | 1010.9 hPa | 0 mm | - | - | - |
| 1777767002 | 13.89° C | 74% | 1010.9 hPa | 0 mm | - | - | - |
| 1777766402 | 13.33° C | 74% | 1011 hPa | 0 mm | - | - | - |
| 1777765802 | 13.33° C | 76% | 1010.9 hPa | 0 mm | - | - | - |
| 1777765202 | 12.78° C | 75% | 1010.9 hPa | 0 mm | - | - | - |
| 1777764602 | 12.78° C | 76% | 1011.3 hPa | 0 mm | - | - | - |
| 1777764000 | 12.22° C | 78% | 1011.1 hPa | 0 mm | - | - | - |
| 1777763400 | 12.22° C | 78% | 1011.1 hPa | 0 mm | - | - | - |
| 1777762800 | 12.22° C | 80% | 1011.4 hPa | 0 mm | - | - | - |
| 1777762202 | 11.67° C | 80% | 1011.6 hPa | 0 mm | - | - | - |
* Rain latest hour (hover to see other rain measurements)
** Current wind speed in m/s (hover to see current wind gust speed)